Regional Weather Roundup
Issued by NWS

Home | Current Version | Previous Version | Graphics & Text | Print | Product List | Glossary On
Versions: 1 2 3 4 5 6 7 8 9 10 11 12 13 14 15 16 17 18 19 20 21 22 23 24 25 26 27 28 29 30 31 32 33 34 35 36 37 38 39 40 41 42 43 44 45 46 47 48 49 50
000
ASUS43 KMKX 250300
RWRWI

WISCONSIN REGIONAL WEATHER ROUNDUP
NATIONAL WEATHER SERVICE MILWAUKEE/SULLIVAN WI
1000 PM CDT THU MAY 24 2018

NOTE: "FAIR" INDICATES FEW OR NO CLOUDS BELOW 12,000 FEET WITH NO
SIGNIFICANT WEATHER AND/OR OBSTRUCTIONS TO VISIBILITY.

WIZ001-002-006>008-014>016-023>028-250400-
NORTHWEST WISCONSIN

CITY           SKY/WX    TMP DP  RH WIND       PRES   REMARKS
SUPERIOR ARPT  FOG       52  52 100 CALM      29.83F VSB 1/4
ASHLAND        FOG       64  64 100 CALM      29.84F VSB 3/4
HAYWARD        FAIR      77  64  64 S10       29.87S
SIREN          FAIR      79  59  49 SW15G21   29.85S HX  80
CUMBERLAND     FAIR      77  54  44 SW25G32   29.90R
RICE LAKE      FAIR      77  60  55 SW9       29.92R
CHETEK         MOCLDY    77  65  65 S6        29.90R
LADYSMITH      FAIR      77  63  61 S7        29.93S
EAU CLAIRE     NOT AVBL
MENOMONIE      CLOUDY    73  62  68 W17G23    29.94R
NEW RICHMOND   LGT RAIN  67  61  81 S15       29.94R
OSCEOLA        RAIN      69  61  77 S15       29.94R
$$

WIZ003>005-009-010-017-018-250400-
NORTH CENTRAL WISCONSIN

CITY           SKY/WX    TMP DP  RH WIND       PRES   REMARKS
MANITOWISH WTR FAIR      63  63 100 N6        29.96R
ARBOR VITAE    FAIR      65  64  96 SE5       29.95F THUNDER
WOODRUFF       FAIR      65  64  96 SE5       29.95F THUNDER
RHINELANDER    CLOUDY    69  63  81 NE9       29.99R
EAGLE RIVER    HVY RAIN  63  62  98 NW12G18   30.02R
LAND O LAKES   RAIN      64  63  96 S3        30.01F
PHILLIPS       MOCLDY    75  64  67 SE3       29.93S
TOMAHAWK       MOCLDY    69  62  78 CALM      29.96S
MEDFORD        FAIR      71  61  70 S8        29.95S
MERRILL        FAIR      73  63  68 CALM      29.96S
$$

WIZ029-030-035-036-043>047-250400-
CENTRAL WISCONSIN

CITY           SKY/WX    TMP DP  RH WIND       PRES   REMARKS
WAUSAU         FAIR      76  60  57 S6        29.95R
MOSINEE        MOCLDY    70  61  73 S7        29.98S
MARSHFIELD     FAIR      72  62  71 S8        29.96S
STEVENS POINT  FAIR      73  59  61 S6        29.98S
WAUPACA        FAIR      73  60  63 CALM      29.97S
WAUTOMA        FAIR      69  62  78 CALM      29.98S
WISC RAPIDS    FAIR      75  61  61 S7        29.97S
CAMP DOUGLAS   NOT AVBL
$$

WIZ011>013-019>022-031-037>040-048>050-250400-
NORTHEAST WISCONSIN

CITY           SKY/WX    TMP DP  RH WIND       PRES   REMARKS
ANTIGO         FAIR      68  59  72 S7        29.98S
SHAWANO        FAIR      77  60  55 CALM      29.96S
OCONTO         FAIR      71  58  62 S5        29.96S
STURGEON BAY   FAIR      69  52  54 S12       29.98S
GREEN BAY      FAIR      71  58  63 S9        29.97S
MANITOWOC      FAIR      68  52  56 S9        30.00S
APPLETON       MOCLDY    72  57  60 S7        29.97S
CLINTONVILLE   FAIR      75  59  56 S6        29.97S
OSHKOSH        FAIR      72  61  68 S5        29.98S
$$

WIZ032>034-041-042-053>061-250400-
SOUTHWEST WISCONSIN

CITY           SKY/WX    TMP DP  RH WIND       PRES   REMARKS
LA CROSSE      MOCLDY    78  66  66 S3        29.93R HX  80
SPARTA         FAIR      73  64  74 CALM      29.95S
VIROQUA        FAIR      77  64  65 S7        29.98R
BOSCOBEL       FAIR      75  65  70 CALM      29.96R
PRAIRIE DU CHI FAIR      79  62  55 SE6       29.95R HX  80
PLATTEVILLE    FAIR      74  65  73 S8        30.00S
$$

WIZ056-057-062-063-064-067-068-250400-
SOUTH CENTRAL WISCONSIN

CITY           SKY/WX    TMP DP  RH WIND       PRES   REMARKS
REEDSBURG      FAIR      74  64  71 CALM      29.97S
BARABOO/DELLS  FAIR      74  61  64 S3        29.98S
LONE ROCK      FAIR      73  66  78 E3        29.97R
MINERAL POINT  FAIR      77  63  61 S5        30.00S
MADISON        MOCLDY    77  62  59 S7        29.98S
MIDDLETON      FAIR      70  64  80 CALM      30.00S
WATERTOWN      FAIR      72  62  70 SE7       30.00R
MONROE         FAIR      73  59  60 S8        30.00S
JANESVILLE     FAIR      73  57  56 S7        30.00S
$$

WIZ051-052-058>065-066-070>072-250400-
SOUTHEAST WISCONSIN

CITY           SKY/WX    TMP DP  RH WIND       PRES   REMARKS
MILWAUKEE      FAIR      71  51  49 S9        30.02S
WAUKESHA       FAIR      70  52  52 S8        30.03S
MILWAUKEE/TIMM FAIR      72  46  40 S7        30.02S
RACINE         FAIR      67  51  56 S8        30.04S
BURLINGTON     FAIR      70  55  59 CALM      30.02S
KENOSHA        FAIR      68  52  56 S8        30.03S
FOND DU LAC    FAIR      70  60  70 SE7       29.99R
SHEBOYGAN      FAIR      64  53  67 S7        30.00F
WEST BEND      FAIR      70  54  56 S5        30.02R
JUNEAU         FAIR      73  60  62 SE7       30.00F
$$

LSZ147-162-250400-
LAKE SUPERIOR

STATION/POSITION TIME  TEMP    WIND        PRES    WAVE
                       AIR SEA DIR/SP/G            HT/PER
                 (UTC) (F)     (DEG/KT/KT) (MB)    (FT/S)
W MID LAKE BUOY  0150   41 36  100/  4/  6 1011.5F   0
DEVILS ISLAND    0200   54     110/  9/ 10 1010.7F
SAXON HARBOR     0240   70     180/  3/  9 1010.2F
$$

LMZ867-665-643>646-250400-
LAKE MICHIGAN

STATION/POSITION TIME  TEMP    WIND        PRES    WAVE
                       AIR SEA DIR/SP/G            HT/PER
                 (UTC) (F)     (DEG/KT/KT) (MB)    (FT/S)
N MID LAKE BUOY  0240   43     190/ 10/ 10 1015.1F
NORTHPORT PIER   0240   67     170/  3/  7 1014.6F
KEWAUNEE LAKESHO 0230   55     170/  8/ 10 1015.0F
SHEBOYGAN LAKESH 0200   64     190/ 18/ 18 1015.7F
PORT WASHINGTON  0240   58     190/  5/  7 1017.3S
ATWATER BUOY     0207   55 50  170/  8/  8 1016.5    1
MILWAUKEE LAKESH 0230   60     360/  1/  1   N/A
S MID LAKE BUOY  0150   57 40  140/  8/  8 1017.4F   0
KENOSHA   LAKESH 0200   63                 1016.6
$$

TC  - TEMPERATURE IN CELSIUS
VSB - VISIBILITY IN STATUTE MILES
WCI - WIND CHILL INDEX
HX  - HEAT INDEX




USA.gov is the U.S. government's official web portal to all federal, state and local government web resources and services.